STARLINK-34525, 64678

Orbit data source: Space-Track

STARLINK-34525, 64678 is a payload satellite owned by SpaceX/Seattle (US) in LEO that was launched on Sat, 28 Jun 2025 UTC via an FALCON 9 launch vehicle from the Air Force Eastern Test Range (AFETR). Payload-class satellites include a variety of spacecraft equipped with specific instruments for various scientific and technological missions. These include communications satellites like Starlink; space stations such as the ISS; scientific satellites like the Hubble; Earth observation satellites from companies like Planet Labs, Umbra, and HawkEye 360; GPS; miniature CubeSats for education and research; and military/defense satellites.

Loading next visibility...
Identifier
64678, 2025-139Q
Orbit
LEO
Country
Flag of USUS
Related business
Manufacturer
SpaceX/Seattle
Mission
Operational Commercial Communications
Bus & Motor
STARLINK V2MO, Unknown motor
Mass
575 kg wet, ~530 kg dry
Launch date (UTC)
2025-06-28 (1 year ago)
Launch vehicle
FALCON 9
Launch site
Air Force Eastern Test Range (AFETR)
Object type
Payload
Rocket body
Debris
Shape & HBR
Box + 2 Pan, 17.7 m
Radar Cross Section
36.964 m², Large (>1 m²)

Expand to show TLE details & history
Last TLE update: 1 day ago

TLE from 1 day ago
0 STARLINK-34525
1 64678U 25139Q   26170.77982824  .00026098  00000-0  78055-3 0  9997
2 64678  53.1598  12.9075 0000761 105.1540 254.9547 15.34412154 55914
Epoch: 2026-06-19T18:42Z
TLE epoch observation values (Epoch: 2026-06-19T18:42:57.159Z)
Latitude
-0.00003°
Longitude
-175.83459°
Altitude
463.704 km
Speed
7.636 km/s
True Right ascension
00h 51m 37s
True Declination
0° 00' 00"
Sunlit
Object was in daylight at epoch
Visualization orbit readout
Latitude
Unknown
Longitude
Unknown
Altitude
Unknown
Speed
Unknown
Apparent Right ascension
Unknown
Apparent Declination
Unknown
Sunlit
N/A
Visualization observer readout
Local Sidereal Time
07:21:54
Azimuth
Unknown
Elevation
Unknown
Doppler factor
Unknown
Orbital elements
Apogee altitude
463.445 km
Perigee altitude
462.403 km
Semi-major axis
6,841.061 km
Eccentricity
0.00008
Inclination
53.1598°
RAAN
12.9075°
Arg. of periapsis
105.154°
True anomaly
254.94628°
Mean anomaly
254.9547°
Eccentric anomaly
254.95049°
Mean motion
3.83582 °/min
Orbital period
93.85 mins
BSTAR
0.00078055
Loading maneuver chart data...
Computing Atmospheric mass density...
Loading historical data...
Loading historical data...
Loading historical data...
Loading historical data...
Loading historical data...
Loading historical data...
Loading historical data...

Documentation

Showing up to 5 results
|